Weather History for Yankton, SD

Change the Weather History Date:

Friday, January 17, 2014

  Actual Average Record
Temperature  
Mean Temperature 20 °F -  
Max Temperature 35 °F 28 °F 60 °F (1951)
Min Temperature 6 °F 8 °F -21 °F (1953)
Degree Days  
Heating Degree Days 44    
Moisture  
Dew Point 7 °F    
Average Humidity 57    
Maximum Humidity 79    
Minimum Humidity 40    
Precipitation  
Precipitation 0.00 in - - ()
Sea Level Pressure  
Sea Level Pressure 30.03 in    
Wind  
Wind Speed 13 mph (WSW)    
Max Wind Speed 23 mph    
Max Gust Speed 31 mph    
Visibility 10 miles    
Events      
Averages and records for this station are not official NWS values.
T = Trace of Precipitation, MM = Missing Value Source: NWS Daily Summary

Daily Weather History Graph

Daily Weather History Graph

Search for Another Location

Airport:

Trip Planner

Search our weather history database for the weather conditions in past years. The results will help you decide how hot, cold, wet, or windy it might be!

Date:

Astronomy

Jan. 17, 2014 Rise Set
Actual Time 7:56 AM CST 5:23 PM CST
Civil Twilight 7:25 AM CST 5:54 PM CST
Nautical Twilight 6:50 AM CST 6:29 PM CST
Astronomical Twilight 6:16 AM CST 7:03 PM CST
Moon 7:14 PM CST (1/17) 8:21 AM CST (1/17)
Length of Visible Light 10h 28m
Length of Day
9h 26m
Full, 98% of the Moon is Illuminated
Jan 17
Full
Jan 23
Last Quarter
Jan 30
New
Feb 6
First Quarter
Feb 14
Full

Hourly Weather History & Observations

Time (CST) Temp. Windchill Dew Point Humidity Pressure Visibility Wind Dir Wind Speed Gust Speed Precip Events Conditions
12:15 AM 12.2 °F -6.3 °F -0.4 °F 57% 30.14 in 10.0 mi NW 20.7 mph 27.6 mph N/A   Clear
12:35 AM 12.2 °F -5.3 °F -0.4 °F 57% 30.13 in 10.0 mi NW 18.4 mph 27.6 mph N/A   Clear
12:55 AM 12.2 °F -6.3 °F -0.4 °F 57% 30.13 in 10.0 mi NW 20.7 mph 28.8 mph N/A   Clear
1:15 AM 12.2 °F -7.1 °F -0.4 °F 57% 30.13 in 10.0 mi NW 23.0 mph 28.8 mph N/A   Clear
1:35 AM 12.2 °F -5.3 °F -0.4 °F 57% 30.13 in 10.0 mi NW 18.4 mph 27.6 mph N/A   Clear
1:55 AM 10.4 °F -8.6 °F -0.4 °F 62% 30.14 in 10.0 mi NW 20.7 mph 27.6 mph N/A   Clear
2:15 AM 10.4 °F -9.1 °F -0.4 °F 62% 30.14 in 10.0 mi NW 21.9 mph 31.1 mph N/A   Clear
2:35 AM 10.4 °F -7.7 °F -0.4 °F 62% 30.14 in 10.0 mi WNW 18.4 mph 23.0 mph N/A   Clear
2:55 AM 10.4 °F -8.2 °F -0.4 °F 62% 30.14 in 10.0 mi NW 19.6 mph 27.6 mph N/A   Clear
3:15 AM 10.4 °F -8.2 °F -0.4 °F 62% 30.14 in 10.0 mi NW 19.6 mph 24.2 mph N/A   Clear
3:35 AM 10.4 °F -7.2 °F -2.2 °F 57% 30.14 in 10.0 mi NW 17.3 mph 23.0 mph N/A   Clear
3:55 AM 10.4 °F -7.7 °F -0.4 °F 62% 30.13 in 10.0 mi NW 18.4 mph 26.5 mph N/A   Clear
4:15 AM 10.4 °F -7.2 °F -0.4 °F 62% 30.13 in 10.0 mi NW 17.3 mph 24.2 mph N/A   Clear
4:35 AM 8.6 °F -8.3 °F -0.4 °F 67% 30.13 in 10.0 mi NW 15.0 mph - N/A   Clear
4:55 AM 8.6 °F -7.0 °F -0.4 °F 67% 30.13 in 10.0 mi NW 12.7 mph - N/A   Clear
5:15 AM 8.6 °F -5.5 °F -2.2 °F 62% 30.13 in 10.0 mi WNW 10.4 mph - N/A   Clear
5:35 AM 8.6 °F -4.7 °F -0.4 °F 67% 30.14 in 10.0 mi WNW 9.2 mph - N/A   Clear
5:55 AM 8.6 °F -3.7 °F -2.2 °F 62% 30.15 in 10.0 mi West 8.1 mph - N/A   Clear
6:15 AM 8.6 °F -2.6 °F -0.4 °F 67% 30.15 in 10.0 mi West 6.9 mph - N/A   Clear
6:35 AM 8.6 °F -1.3 °F -2.2 °F 62% 30.15 in 10.0 mi West 5.8 mph - N/A   Clear
6:55 AM 8.6 °F -1.3 °F 1.4 °F 73% 30.16 in 10.0 mi WSW 5.8 mph - N/A   Clear
7:15 AM 6.8 °F -5.9 °F 1.4 °F 79% 30.15 in 10.0 mi West 8.1 mph - N/A   Clear
7:35 AM 8.6 °F -3.7 °F -0.4 °F 67% 30.16 in 10.0 mi WSW 8.1 mph - N/A   Clear
7:55 AM 8.6 °F -1.3 °F -0.4 °F 67% 30.16 in 10.0 mi West 5.8 mph - N/A   Clear
8:15 AM 8.6 °F -3.7 °F 1.4 °F 73% 30.15 in 10.0 mi West 8.1 mph - N/A   Clear
8:35 AM 10.4 °F -2.4 °F 1.4 °F 67% 30.15 in 10.0 mi WNW 9.2 mph - N/A   Clear
8:55 AM 10.4 °F -4.1 °F 5.0 °F 79% 30.15 in 10.0 mi NW 11.5 mph - N/A   Clear
9:15 AM 12.2 °F -1.8 °F 5.0 °F 73% 30.14 in 10.0 mi WNW 11.5 mph - N/A   Clear
9:35 AM 14.0 °F 1.2 °F 6.8 °F 73% 30.15 in 10.0 mi West 10.4 mph - N/A   Clear
9:55 AM 15.8 °F 3.4 °F 6.8 °F 68% 30.14 in 10.0 mi WNW 10.4 mph - N/A   Clear
10:15 AM 15.8 °F 4.2 °F 5.0 °F 62% 30.14 in 10.0 mi WNW 9.2 mph - N/A   Clear
10:35 AM 17.6 °F 6.4 °F 6.8 °F 63% 30.14 in 10.0 mi WNW 9.2 mph - N/A   Clear
10:55 AM 19.4 °F 9.5 °F 6.8 °F 58% 30.14 in 10.0 mi WNW 8.1 mph - N/A   Clear
11:15 AM 19.4 °F 11.5 °F 3.2 °F 49% 30.13 in 10.0 mi NW 5.8 mph - N/A   Clear
11:35 AM 21.2 °F 14.9 °F 1.4 °F 42% 30.13 in 10.0 mi NW 4.6 mph - N/A   Clear
11:55 AM 23.0 °F 14.7 °F 3.2 °F 43% 30.12 in 10.0 mi NW 6.9 mph - N/A   Clear
12:15 PM 24.8 °F 16.9 °F 5.0 °F 43% 30.11 in 10.0 mi West 6.9 mph - N/A   Clear
12:35 PM 24.8 °F 17.9 °F 3.2 °F 40% 30.10 in 10.0 mi WSW 5.8 mph - N/A   Clear
12:55 PM 24.8 °F 16.1 °F 6.8 °F 46% 30.09 in 10.0 mi SSW 8.1 mph - N/A   Clear
1:15 PM 24.8 °F 19.1 °F 6.8 °F 46% 30.07 in 10.0 mi SW 4.6 mph - N/A   Clear
1:35 PM 26.6 °F 18.2 °F 10.4 °F 51% 30.06 in 10.0 mi SW 8.1 mph - N/A   Clear
1:55 PM 26.6 °F 19.1 °F 10.4 °F 51% 30.06 in 10.0 mi South 6.9 mph - N/A   Clear
2:15 PM 26.6 °F 22.6 °F 10.4 °F 51% 30.05 in 10.0 mi SW 3.5 mph - N/A   Clear
2:35 PM 28.4 °F 20.4 °F 10.4 °F 47% 30.04 in 10.0 mi SW 8.1 mph - N/A   Clear
2:55 PM 28.4 °F 20.4 °F 12.2 °F 51% 30.04 in 10.0 mi SW 8.1 mph - N/A   Clear
3:15 PM 28.4 °F 23.3 °F 15.8 °F 59% 30.03 in 10.0 mi SW 4.6 mph - N/A   Clear
3:35 PM 30.2 °F 24.3 °F 14.0 °F 51% 30.02 in 10.0 mi SW 5.8 mph - N/A   Clear
3:55 PM 30.2 °F 23.4 °F 14.0 °F 51% 30.01 in 10.0 mi SW 6.9 mph - N/A   Clear
4:15 PM 30.2 °F 25.4 °F 14.0 °F 51% 30.00 in 10.0 mi SSW 4.6 mph - N/A   Clear
4:35 PM 30.2 °F 24.3 °F 14.0 °F 51% 29.99 in 10.0 mi SE 5.8 mph - N/A   Clear
4:55 PM 28.4 °F 23.3 °F 14.0 °F 55% 29.98 in 10.0 mi ESE 4.6 mph - N/A   Clear
5:15 PM 28.4 °F 23.3 °F 14.0 °F 55% 29.97 in 10.0 mi ESE 4.6 mph - N/A   Clear
5:35 PM 28.4 °F 22.2 °F 14.0 °F 55% 29.96 in 10.0 mi East 5.8 mph - N/A   Clear
5:55 PM 28.4 °F 22.2 °F 14.0 °F 55% 29.96 in 10.0 mi East 5.8 mph - N/A   Partly Cloudy
6:15 PM 28.4 °F 23.3 °F 14.0 °F 55% 29.96 in 10.0 mi East 4.6 mph - N/A   Clear
6:35 PM 28.4 °F 22.2 °F 14.0 °F 55% 29.96 in 10.0 mi East 5.8 mph - N/A   Partly Cloudy
6:55 PM 28.4 °F 23.3 °F 14.0 °F 55% 29.95 in 10.0 mi East 4.6 mph - N/A   Mostly Cloudy
7:15 PM 28.4 °F 20.4 °F 15.8 °F 59% 29.93 in 10.0 mi ESE 8.1 mph - N/A   Mostly Cloudy
7:35 PM 28.4 °F 20.4 °F 15.8 °F 59% 29.91 in 10.0 mi East 8.1 mph - N/A   Partly Cloudy
7:55 PM 28.4 °F 19.7 °F 14.0 °F 55% 29.89 in 10.0 mi ESE 9.2 mph - N/A   Clear
8:15 PM 28.4 °F 23.3 °F 14.0 °F 55% 29.88 in 10.0 mi ESE 4.6 mph - N/A   Mostly Cloudy
8:35 PM 28.4 °F 21.2 °F 15.8 °F 59% 29.86 in 10.0 mi ESE 6.9 mph - N/A   Overcast
8:55 PM 28.4 °F 21.2 °F 15.8 °F 59% 29.85 in 10.0 mi ESE 6.9 mph - N/A   Overcast
9:15 PM 30.2 °F 21.9 °F 15.8 °F 55% 29.83 in 10.0 mi SSE 9.2 mph - N/A   Overcast
9:35 PM 30.2 °F 23.4 °F 15.8 °F 55% 29.80 in 10.0 mi SSE 6.9 mph - N/A   Scattered Clouds
9:55 PM 32.0 °F 23.0 °F 15.8 °F 51% 29.78 in 10.0 mi South 11.5 mph - N/A   Mostly Cloudy
10:15 PM 33.8 °F 25.8 °F 15.8 °F 48% 29.75 in 10.0 mi South 10.4 mph - N/A   Mostly Cloudy
10:35 PM 33.8 °F 23.9 °F 17.6 °F 52% 29.73 in 10.0 mi South 15.0 mph 18.4 mph N/A   Overcast
10:55 PM 35.6 °F 29.9 °F 15.8 °F 44% 29.73 in 10.0 mi SSW 6.9 mph - N/A   Overcast
11:15 PM 35.6 °F 28.6 °F 15.8 °F 44% 29.70 in 10.0 mi SSW 9.2 mph - N/A   Overcast
11:35 PM 33.8 °F 24.3 °F 15.8 °F 48% 29.68 in 10.0 mi SSW 13.8 mph - N/A   Mostly Cloudy
11:55 PM 35.6 °F 26.6 °F 17.6 °F 48% 29.66 in 10.0 mi SSW 13.8 mph 19.6 mph N/A   Mostly Cloudy